DateTimeUTC,F1_A11,F1_S11,BsB_S11,BsG_S11,BsR_S11,BbsB_S11,BbsG_S11,BbsR_S11,BaB_A11,BaG_A11,BaR_A11,T_S11,U_S11,P_S11,T1_A11
2020-03-22T00:00:00Z,00000388,21000608,,,,,,,,,,22.7,00.0,0616.6,30.9
2020-03-22T00:01:00Z,00000388,21000608,,,,,,,,,,22.7,00.0,0616.6,30.9
2020-03-22T00:02:00Z,00000388,21000608,,,,,,,,,,22.8,00.0,0616.6,31.0
2020-03-22T00:03:00Z,00000388,61000608,,,,,,,,,,22.8,00.0,0616.6,30.9
2020-03-22T00:04:00Z,00000388,41000608,0002.50,0000.78,0000.03,0000.84,0000.02,-000.04,0000.06,0000.17,0000.16,22.6,00.0,0617.3,30.9
2020-03-22T00:05:00Z,00000388,01000608,0001.05,0001.26,0000.06,0000.44,0000.26,-000.15,0000.09,0000.23,0000.04,22.6,00.0,0617.3,30.9
2020-03-22T00:06:00Z,00000388,01000608,0001.66,0000.68,0000.80,0001.36,0000.15,0000.25,-000.02,-000.19,0000.03,22.5,00.0,0617.4,30.9
2020-03-22T00:07:00Z,00000388,01000608,0001.60,0001.34,0000.40,0000.75,0000.31,0000.07,0000.17,0000.11,-000.00,22.5,00.0,0617.3,30.9
2020-03-22T00:08:00Z,00000388,01000608,0001.58,0001.03,0000.47,0000.99,0000.21,0000.56,0000.16,-000.07,0000.25,22.4,00.0,0617.3,30.8
2020-03-22T00:09:00Z,00000388,01000608,0002.46,0001.00,0001.03,0000.98,-000.06,0000.40,0000.12,0000.34,-000.05,22.4,00.0,0617.3,30.8
2020-03-22T00:10:00Z,00000388,01000608,0002.08,0000.55,0000.43,0000.67,0000.25,0000.26,0000.06,0000.01,0000.15,22.4,00.0,0617.2,30.9
2020-03-22T00:11:00Z,00000388,01000608,0001.47,0001.22,0000.21,0001.24,-000.09,0000.25,0000.02,-000.00,0000.11,22.5,00.0,0617.2,30.9
2020-03-22T00:12:00Z,00000388,01000608,0002.09,0000.82,0000.39,-000.26,0000.14,0000.18,0000.06,0000.33,0000.04,22.5,00.0,0617.2,30.9
2020-03-22T00:13:00Z,00000388,01000608,0001.31,0000.51,0001.04,0000.55,0000.41,0000.58,-000.04,-000.01,-000.02,22.5,00.0,0617.3,30.9
2020-03-22T00:14:00Z,00000388,01000608,0001.36,0001.01,0001.00,0000.13,0000.36,0000.12,0000.14,0000.04,0000.03,22.6,00.0,0617.3,30.9
2020-03-22T00:15:00Z,00000388,01000608,0001.97,0000.85,0001.03,0000.16,0000.32,0000.12,-000.01,0000.04,-000.07,22.6,00.0,0617.3,31.0
2020-03-22T00:16:00Z,00000388,01000608,0000.84,0000.60,0000.34,0001.23,0000.19,0000.33,0000.05,0000.01,0000.04,22.6,00.0,0617.4,31.0
2020-03-22T00:17:00Z,00000388,01000608,0001.23,0001.30,0000.34,0000.92,0000.17,-000.06,0000.06,-000.12,0000.06,22.7,00.0,0617.3,31.0
2020-03-22T00:18:00Z,00000388,01000608,0001.23,0001.14,0000.43,0001.48,-000.03,0000.53,-000.00,0000.21,0000.23,22.6,00.0,0617.3,30.9
2020-03-22T00:19:00Z,00000388,01000608,0001.58,0001.28,0000.46,0001.37,0000.34,0000.12,0000.21,0000.10,-000.27,22.6,00.0,0617.3,30.9
2020-03-22T00:20:00Z,00000388,01000608,0001.93,0001.35,0000.59,-000.41,0000.16,0000.11,0000.09,-000.03,0000.09,22.6,00.0,0617.2,30.9
2020-03-22T00:21:00Z,00000388,01000608,0001.74,0001.02,0000.03,0000.19,0000.18,-000.28,-000.02,0000.11,0000.04,22.5,00.0,0617.2,30.9
2020-03-22T00:22:00Z,00000388,01000608,0002.30,0001.27,0000.57,0000.64,-000.06,0000.06,0000.12,-000.04,0000.19,22.5,00.0,0617.2,30.9
2020-03-22T00:23:00Z,00000388,01000608,0002.22,0000.89,0000.64,-000.04,0000.01,0000.61,0000.06,-000.01,-000.03,22.5,00.0,0617.2,30.8
2020-03-22T00:24:00Z,00000388,01000608,0001.22,0001.10,0000.85,0000.23,0000.72,0000.27,-000.04,0000.17,0000.11,22.5,00.0,0617.1,30.8
2020-03-22T00:25:00Z,00000388,01000608,0002.53,0001.75,0000.29,0000.93,0000.25,0000.07,0000.20,0000.08,0000.08,22.5,00.0,0617.2,30.9
2020-03-22T00:26:00Z,00000388,01000608,0003.08,0001.59,0000.25,0000.74,0000.38,0000.55,0000.16,0000.11,0000.13,22.5,00.0,0617.2,30.9
2020-03-22T00:27:00Z,00000388,01000608,0002.19,0000.84,0000.42,0000.24,-000.08,0000.18,-000.06,0000.21,0000.03,22.5,00.0,0617.2,30.9
2020-03-22T00:28:00Z,00000388,01000608,0000.49,0001.43,0000.92,0000.99,0000.54,-000.06,0000.10,-000.05,0000.02,22.6,00.0,0617.2,30.9
2020-03-22T00:29:00Z,00000388,01000608,0000.65,0001.12,0000.46,0000.90,-000.22,0000.26,0000.07,0000.13,0000.04,22.6,00.0,0617.3,31.0
2020-03-22T00:30:00Z,00000388,01000608,0002.15,0000.84,0000.45,0001.25,0000.19,-000.01,0000.08,-000.09,0000.06,22.6,00.0,0617.3,31.0
2020-03-22T00:31:00Z,00000388,01000608,0001.76,0000.82,0000.47,0001.36,0000.17,0000.56,0000.08,-000.14,0000.11,22.6,00.0,0617.3,30.9
2020-03-22T00:32:00Z,00000388,01000608,0002.49,0001.08,0000.32,0000.62,0000.11,0000.15,-000.09,0000.26,-000.21,22.6,00.0,0617.3,30.9
2020-03-22T00:33:00Z,00000388,01000608,0002.68,0000.34,0000.43,0000.08,0000.23,0000.11,0000.05,0000.01,0000.20,22.6,00.0,0617.2,30.9
2020-03-22T00:34:00Z,00000388,01000608,0001.67,0000.54,0000.10,0001.91,0000.44,-000.23,-000.01,0000.07,0000.04,22.5,00.0,0617.2,30.9
2020-03-22T00:35:00Z,00000388,01000608,0000.76,0001.14,0000.26,0001.42,0000.58,0000.52,0000.28,0000.14,-000.00,22.5,00.0,0617.2,30.9
2020-03-22T00:36:00Z,00000388,01000608,0001.98,0000.54,0000.85,0000.57,0000.32,-000.02,-000.02,0000.11,0000.05,22.5,00.0,0617.1,30.9
2020-03-22T00:37:00Z,00000388,01000608,0002.04,0000.76,0000.89,0000.27,0000.30,0000.05,0000.25,0000.02,-000.00,22.4,00.0,0617.1,30.9
2020-03-22T00:38:00Z,00000388,01000608,0001.17,0000.97,0000.87,-000.06,0000.08,-000.04,-000.06,-000.12,0000.07,22.4,00.0,0617.1,30.8
2020-03-22T00:39:00Z,00000388,01000608,0002.09,0000.76,0000.70,0000.65,0000.20,0000.32,0000.12,0000.25,0000.20,22.4,00.0,0617.1,30.8
2020-03-22T00:40:00Z,00000388,01000608,0001.06,0001.26,0000.73,0000.76,-000.31,0000.43,0000.15,0000.19,0000.07,22.4,00.0,0617.1,30.8
2020-03-22T00:41:00Z,00000388,01000608,0000.65,0001.06,0000.37,0000.93,0000.13,0000.18,0000.14,0000.06,0000.13,22.4,00.0,0617.1,30.9
2020-03-22T00:42:00Z,00000388,01000608,0003.00,0001.46,0000.66,0001.12,0000.40,-000.20,0000.03,0000.24,0000.11,22.4,00.0,0617.1,30.9
2020-03-22T00:43:00Z,00000388,01000608,0000.89,0000.70,0000.20,0000.07,0000.03,0000.54,0000.16,0000.04,0000.06,22.5,00.0,0617.1,30.9
2020-03-22T00:44:00Z,00000388,01000608,0001.48,0001.33,0000.09,0000.31,0000.09,0000.11,0000.14,0000.13,-000.02,22.5,00.0,0617.1,30.9
2020-03-22T00:45:00Z,00000388,01000608,0001.69,0000.32,0000.20,0000.49,0000.35,-000.14,-000.03,0000.11,0000.20,22.5,00.0,0617.1,30.9
2020-03-22T00:46:00Z,00000388,01000608,0001.60,0001.44,0000.72,0000.26,-000.06,0000.18,0000.11,0000.12,0000.03,22.5,00.0,0617.0,31.0
2020-03-22T00:47:00Z,00000388,01000608,0003.06,0000.80,0000.24,-000.55,0000.04,0000.17,0000.16,-000.09,0000.25,22.6,00.0,0617.0,31.0
2020-03-22T00:48:00Z,00000388,01000608,0001.48,0001.00,0000.97,0000.19,0000.09,-000.14,0000.17,0000.24,-000.13,22.6,00.0,0617.0,30.9
2020-03-22T00:49:00Z,00000388,01000608,0001.77,0000.98,-000.04,0000.80,-000.35,0000.17,0000.08,0000.14,0000.17,22.5,00.0,0617.0,30.9
2020-03-22T00:50:00Z,00000388,01000608,0001.15,0000.62,0000.12,0000.55,-000.52,-000.02,0000.08,-000.06,0000.02,22.5,00.0,0617.0,30.9
2020-03-22T00:51:00Z,00000388,01000608,0002.60,0001.17,0000.59,-000.33,0000.13,-000.28,-000.05,0000.02,-000.04,22.5,00.0,0617.0,30.9
2020-03-22T00:52:00Z,00000388,01000608,0001.55,0000.98,0000.62,0000.49,0000.19,0000.29,0000.06,-000.11,0000.08,22.4,00.0,0617.0,30.9
2020-03-22T00:53:00Z,00000388,01000608,0001.28,0000.94,0000.22,-000.11,-000.26,0000.06,0000.14,0000.21,0000.04,22.4,00.0,0616.9,30.8
2020-03-22T00:54:00Z,00000388,01000608,0002.21,0001.25,0000.86,0000.21,0000.50,0000.51,0000.20,0000.10,0000.05,22.4,00.0,0617.0,30.8
2020-03-22T00:55:00Z,00000388,01000608,0001.42,0000.42,0000.61,0000.67,0000.01,0000.44,0000.08,0000.20,0000.11,22.4,00.0,0617.0,30.9
2020-03-22T00:56:00Z,00000388,01000608,0002.09,0001.56,0000.55,-000.00,-000.25,-000.01,0000.06,-000.02,0000.04,22.4,00.0,0617.0,30.9
2020-03-22T00:57:00Z,00000388,41000608,,,,,,,,,,22.4,00.0,0617.0,30.9
2020-03-22T00:58:00Z,00000388,61000608,,,,,,,,,,22.6,00.0,0616.1,30.9
2020-03-22T00:59:00Z,00000388,21000608,,,,,,,,,,22.7,00.0,0616.1,30.9
2020-03-22T01:00:00Z,00000388,21000608,,,,,,,,,,22.7,00.0,0616.1,30.9
2020-03-22T01:01:00Z,00000388,21000608,,,,,,,,,,22.8,00.0,0616.1,31.0
2020-03-22T01:02:00Z,00000388,21000608,,,,,,,,,,22.8,00.0,0616.1,31.0
2020-03-22T01:03:00Z,00000388,61000608,,,,,,,,,,22.8,00.0,0616.1,30.9
2020-03-22T01:04:00Z,00000388,41000608,0001.22,0000.25,0000.74,0000.85,0000.06,-000.04,-000.06,0000.11,-000.12,22.7,00.0,0616.9,30.9
2020-03-22T01:05:00Z,00000388,01000608,0001.19,0000.92,0000.82,0000.28,0000.16,0000.54,0000.07,-000.05,0000.14,22.6,00.0,0617.0,30.9
2020-03-22T01:06:00Z,00000388,01000608,0001.12,0000.98,0000.92,-000.24,-000.15,0000.06,0000.11,0000.17,0000.03,22.5,00.0,0617.0,30.9
2020-03-22T01:07:00Z,00000388,01000608,0000.89,0001.44,0000.80,0000.07,0000.12,0000.17,0000.09,0000.15,-000.01,22.5,00.0,0616.9,30.9
2020-03-22T01:08:00Z,00000388,01000608,0001.67,0000.60,0000.56,0000.58,-000.29,0000.46,0000.10,-000.19,0000.06,22.5,00.0,0616.9,30.8
2020-03-22T01:09:00Z,00000388,01000608,0002.37,0000.82,0001.10,0000.57,0000.36,0000.41,0000.20,0000.29,0000.08,22.4,00.0,0616.9,30.8
2020-03-22T01:10:00Z,00000388,01000608,0002.75,0000.61,0000.59,0000.42,-000.06,-000.21,0000.02,-000.06,0000.10,22.4,00.0,0616.9,30.8
2020-03-22T01:11:00Z,00000388,01000608,0002.23,0000.72,0000.64,0000.50,0000.23,0000.07,0000.04,0000.20,0000.12,22.4,00.0,0616.9,30.8
2020-03-22T01:12:00Z,00000388,01000608,0001.43,0000.60,0000.21,0000.09,0000.34,-000.12,0000.09,0000.11,-000.01,22.5,00.0,0616.9,30.9
2020-03-22T01:13:00Z,00000388,01000608,0001.02,0000.94,0000.85,0000.17,0000.39,-000.05,-000.12,0000.04,0000.01,22.5,00.0,0616.9,30.9
2020-03-22T01:14:00Z,00000388,01000608,0001.62,0000.77,-000.20,-000.46,0000.07,-000.20,0000.08,-000.03,0000.01,22.5,00.0,0616.9,30.9
2020-03-22T01:15:00Z,00000388,01000608,0001.72,0001.10,0001.27,-000.52,0000.22,0000.49,0000.09,0000.15,0000.02,22.5,00.0,0616.9,30.9
2020-03-22T01:16:00Z,00000388,01000608,0001.18,0000.98,0001.52,-000.54,0000.05,0000.00,-000.05,0000.01,0000.07,22.6,00.0,0616.9,31.0
2020-03-22T01:17:00Z,00000388,01000608,0000.69,0001.49,0000.40,0000.32,0000.38,-000.18,0000.24,0000.07,0000.07,22.6,00.0,0616.9,31.0
2020-03-22T01:18:00Z,00000388,01000608,0001.40,0001.49,0000.62,0000.48,0000.23,0000.28,0000.29,0000.03,0000.10,22.6,00.0,0616.9,30.9
2020-03-22T01:19:00Z,00000388,01000608,0001.49,0000.40,0000.77,0000.05,0000.09,0000.26,-000.15,0000.16,-000.00,22.6,00.0,0616.9,30.9
2020-03-22T01:20:00Z,00000388,01000608,0001.68,0001.22,0000.91,0000.17,0000.04,0000.17,0000.19,0000.10,0000.15,22.6,00.0,0616.8,30.9
2020-03-22T01:21:00Z,00000388,01000608,0001.66,0001.24,0000.98,0000.52,0000.15,0000.20,-000.04,0000.26,0000.06,22.5,00.0,0616.8,30.9
2020-03-22T01:22:00Z,00000388,01000608,0000.05,0001.34,0000.40,0000.44,0000.19,0000.09,0000.22,-000.07,-000.07,22.5,00.0,0616.7,30.8
2020-03-22T01:23:00Z,00000388,01000608,0000.72,0000.52,0000.24,0000.80,0000.07,0000.28,0000.21,-000.08,0000.07,22.4,00.0,0616.7,30.8
2020-03-22T01:24:00Z,00000388,01000608,0000.55,0000.95,0000.63,0000.55,0000.02,0000.11,-000.09,0000.26,0000.13,22.4,00.0,0616.7,30.8
2020-03-22T01:25:00Z,00000388,01000608,0002.37,0001.26,0000.38,0000.22,0000.24,0000.28,0000.17,0000.04,-000.03,22.4,00.0,0616.7,30.8
2020-03-22T01:26:00Z,00000388,01000608,0001.18,0000.54,0000.11,0000.78,0000.13,0000.01,0000.01,0000.18,0000.22,22.4,00.0,0616.8,30.9
2020-03-22T01:27:00Z,00000388,01000608,0000.65,0000.91,0000.52,0000.11,0000.30,-000.07,0000.18,0000.10,0000.13,22.4,00.0,0616.8,30.9
2020-03-22T01:28:00Z,00000388,01000608,0001.58,0000.82,0000.95,0000.35,0000.18,0000.71,0000.05,0000.06,-000.12,22.5,00.0,0616.8,30.9
2020-03-22T01:29:00Z,00000388,01000608,0002.71,0001.03,0000.67,0000.07,0000.24,-000.16,0000.05,-000.05,0000.14,22.5,00.0,0616.8,30.9
2020-03-22T01:30:00Z,00000388,01000608,0001.08,0001.05,0000.18,0000.63,0000.26,-000.00,0000.09,0000.01,-000.03,22.6,00.0,0616.8,30.9
2020-03-22T01:31:00Z,00000388,01000608,0001.42,0000.93,0000.45,0000.91,0000.14,-000.01,-000.01,0000.19,0000.00,22.5,00.0,0616.8,30.9
2020-03-22T01:32:00Z,00000388,01000608,0001.62,0001.32,0001.32,0000.04,0000.36,0000.12,0000.05,-000.04,-000.00,22.5,00.0,0616.8,30.9
2020-03-22T01:33:00Z,00000388,01000608,0003.45,0000.90,0000.51,0001.01,0000.03,-000.03,0000.01,-000.05,0000.22,22.5,00.0,0616.7,30.9
2020-03-22T01:34:00Z,00000388,01000608,0000.85,0000.58,0001.04,0000.15,-000.05,0000.40,0000.17,0000.25,-000.09,22.4,00.0,0616.7,30.9
2020-03-22T01:35:00Z,00000388,01000608,0001.54,0000.73,0000.51,-000.16,-000.16,0000.40,-000.03,-000.06,-000.06,22.4,00.0,0616.7,30.8
2020-03-22T01:36:00Z,00000388,01000608,0001.07,0000.93,0000.47,0000.39,0000.19,-000.08,0000.11,-000.02,0000.13,22.3,00.0,0616.7,30.8
2020-03-22T01:37:00Z,00000388,01000608,0000.89,0001.01,0000.24,0000.15,0000.20,0000.18,0000.05,-000.08,0000.12,22.3,00.0,0616.6,30.8
2020-03-22T01:38:00Z,00000388,01000608,0001.50,0000.95,0000.19,0000.72,0000.02,0000.43,0000.06,-000.03,-000.17,22.3,00.0,0616.6,30.8
2020-03-22T01:39:00Z,00000388,01000608,0002.49,0000.48,0000.03,0000.49,-000.10,-000.06,0000.15,0000.28,0000.18,22.2,00.0,0616.6,30.8
2020-03-22T01:40:00Z,00000388,01000608,0000.88,0000.27,0000.93,0000.45,0000.66,-000.05,0000.13,0000.11,0000.14,22.2,00.0,0616.6,30.8
2020-03-22T01:41:00Z,00000388,01000608,0001.10,0000.59,0000.87,0000.28,0000.48,0000.28,-000.02,0000.07,-000.12,22.3,00.0,0616.6,30.8
2020-03-22T01:42:00Z,00000388,01000608,0000.62,0001.29,0000.27,0000.53,-000.15,0000.48,-000.06,0000.16,0000.06,22.3,00.0,0616.7,30.9
2020-03-22T01:43:00Z,00000388,01000608,0002.78,0000.92,0000.87,0000.01,0000.04,0000.34,0000.18,0000.17,0000.11,22.3,00.0,0616.7,30.9
2020-03-22T01:44:00Z,00000388,01000608,0002.26,0000.79,0000.38,0001.18,0000.14,0000.05,0000.03,-000.14,0000.17,22.3,00.0,0616.7,30.9
2020-03-22T01:45:00Z,00000388,01000608,0001.95,0001.07,0001.17,0000.55,0000.26,0000.11,0000.15,0000.15,-000.03,22.4,00.0,0616.7,30.9
2020-03-22T01:46:00Z,00000388,01000608,0000.79,0000.77,0000.79,0000.35,0000.42,-000.06,-000.03,0000.12,-000.05,22.4,00.0,0616.7,30.9
2020-03-22T01:47:00Z,00000388,01000608,0001.91,0000.78,0000.88,0000.85,0000.17,-000.16,0000.10,0000.18,0000.12,22.4,00.0,0616.8,30.9
2020-03-22T01:48:00Z,00000388,01000608,0001.75,0000.66,0000.40,0000.24,0000.46,0000.20,0000.16,-000.13,0000.08,22.4,00.0,0616.7,30.9
2020-03-22T01:49:00Z,00000388,01000608,0001.53,0000.85,0000.80,0000.30,-000.06,0000.21,0000.05,0000.21,0000.14,22.4,00.0,0616.7,30.9
2020-03-22T01:50:00Z,00000388,01000608,0001.82,0000.98,0000.86,0000.68,0000.75,0000.23,0000.08,0000.04,-000.10,22.4,00.0,0616.7,30.9
2020-03-22T01:51:00Z,00000388,01000608,0001.42,0000.56,0000.21,-000.03,0000.17,0000.25,0000.25,0000.10,0000.26,22.3,00.0,0616.6,30.9
2020-03-22T01:52:00Z,00000388,01000608,0001.15,0000.66,0000.42,0001.33,0000.19,0000.56,0000.11,0000.13,-000.01,22.3,00.0,0616.5,30.8
2020-03-22T01:53:00Z,00000388,01000608,0001.72,0001.12,0001.06,0000.40,0000.56,0000.42,0000.34,0000.17,0000.28,22.2,00.0,0616.5,30.8
2020-03-22T01:54:00Z,00000388,01000608,0000.25,0000.74,0000.06,0000.44,-000.08,0000.48,0000.07,0000.27,0000.10,22.2,00.0,0616.5,30.8
2020-03-22T01:55:00Z,00000388,01000608,0001.42,0000.85,0000.31,0000.75,-000.05,-000.08,0000.24,0000.07,0000.15,22.2,00.0,0616.5,30.8
2020-03-22T01:56:00Z,00000388,01000608,0002.33,0000.30,0000.70,0001.52,0000.13,-000.27,0000.00,0000.14,0000.09,22.3,00.0,0616.5,30.8
2020-03-22T01:57:00Z,00000388,41000608,,,,,,,,,,22.3,00.0,0616.4,30.9
2020-03-22T01:58:00Z,00000388,61000608,,,,,,,,,,22.5,00.0,0615.6,30.9
2020-03-22T01:59:00Z,00000388,21000608,,,,,,,,,,22.6,00.0,0615.6,30.9
2020-03-22T02:00:00Z,00000388,21000608,,,,,,,,,,22.6,00.0,0615.6,30.9
2020-03-22T02:01:00Z,00000388,21000608,,,,,,,,,,22.6,00.0,0615.6,31.0
2020-03-22T02:02:00Z,00000388,21000608,,,,,,,,,,22.6,00.0,0615.6,30.9
2020-03-22T02:03:00Z,00000388,61000608,,,,,,,,,,22.7,00.0,0615.6,30.9
2020-03-22T02:04:00Z,00000388,41000608,0001.96,0001.52,0000.60,0000.38,0000.47,0000.39,-000.06,-000.04,0000.11,22.5,00.0,0616.4,30.9
2020-03-22T02:05:00Z,00000388,01000608,0001.22,0001.56,0000.50,0000.85,0000.12,0000.15,0000.01,0000.23,0000.12,22.4,00.0,0616.5,30.9
2020-03-22T02:06:00Z,00000388,01000608,-000.18,0001.25,0000.43,0000.23,0000.62,0000.17,0000.23,-000.08,-000.09,22.4,00.0,0616.5,30.9
2020-03-22T02:07:00Z,00000388,01000608,-000.19,0000.97,0000.14,0000.37,0000.44,0000.12,0000.12,-000.12,-000.10,22.3,00.0,0616.5,30.8
2020-03-22T02:08:00Z,00000388,01000608,0000.71,0001.47,0000.77,0000.93,0000.06,0000.35,-000.02,0000.00,0000.13,22.3,00.0,0616.5,30.8
2020-03-22T02:09:00Z,00000388,01000608,0000.85,0001.04,0000.62,0000.55,0000.36,0000.08,0000.08,0000.13,0000.05,22.3,00.0,0616.5,30.8
2020-03-22T02:10:00Z,00000388,01000608,0001.65,0001.19,0000.52,0000.35,0000.20,0000.16,0000.04,0000.08,-000.04,22.3,00.0,0616.5,30.8
2020-03-22T02:11:00Z,00000388,01000608,0002.84,0001.02,0000.43,0000.84,0000.39,0000.23,0000.05,0000.02,0000.05,22.3,00.0,0616.5,30.9
2020-03-22T02:12:00Z,00000388,01000608,0002.54,0000.89,0000.48,0000.35,0000.13,0000.15,0000.10,0000.08,0000.20,22.3,00.0,0616.5,30.9
2020-03-22T02:13:00Z,00000388,01000608,0001.78,0001.08,0000.28,0000.65,-000.01,-000.22,0000.03,0000.19,0000.09,22.4,00.0,0616.6,30.9
2020-03-22T02:14:00Z,00000388,01000608,-000.95,0000.73,0000.48,0001.00,0000.53,0000.20,0000.07,0000.08,0000.01,22.4,00.0,0616.6,30.9
2020-03-22T02:15:00Z,00000388,01000608,0000.52,0001.29,0000.41,0000.83,0000.18,0000.32,0000.11,0000.12,0000.11,22.4,00.0,0616.6,30.9
2020-03-22T02:16:00Z,00000388,01000608,0000.83,0000.66,0000.30,0000.85,-000.07,-000.37,0000.12,-000.00,0000.02,22.5,00.0,0616.6,31.0
2020-03-22T02:17:00Z,00000388,01000608,0001.64,0001.19,0000.81,0000.91,0000.19,0000.30,0000.21,0000.09,0000.02,22.5,00.0,0616.6,31.0
2020-03-22T02:18:00Z,00000388,01000608,0000.78,0001.10,0000.90,0000.50,0000.36,0000.42,-000.05,0000.09,0000.10,22.4,00.0,0616.6,30.9
2020-03-22T02:19:00Z,00000388,01000608,0001.29,0000.71,0000.30,0000.33,0000.06,0000.09,0000.24,0000.13,0000.08,22.4,00.0,0616.6,30.9
2020-03-22T02:20:00Z,00000388,01000608,0001.26,0001.01,0000.15,0000.52,0000.66,0000.21,-000.06,-000.02,0000.01,22.4,00.0,0616.6,30.9
2020-03-22T02:21:00Z,00000388,01000608,0002.46,0000.72,0000.51,0000.51,0000.30,-000.01,0000.04,0000.13,0000.05,22.3,00.0,0616.6,30.9
2020-03-22T02:22:00Z,00000388,01000608,0001.16,0001.00,0000.62,0000.43,0000.48,0000.51,0000.17,-000.16,-000.07,22.3,00.0,0616.6,30.9
2020-03-22T02:23:00Z,00000388,01000608,0000.47,0001.17,0000.62,0000.50,0000.29,0000.02,-000.07,0000.01,0000.06,22.3,00.0,0616.6,30.8
2020-03-22T02:24:00Z,00000388,01000608,0001.75,0001.65,0000.28,0000.72,-000.16,0000.63,0000.27,0000.25,0000.12,22.3,00.0,0616.6,30.8
2020-03-22T02:25:00Z,00000388,01000608,0001.91,0000.71,-000.11,0000.35,0000.18,0000.06,-000.15,-000.09,-000.07,22.3,00.0,0616.6,30.8
2020-03-22T02:26:00Z,00000388,01000608,0001.20,0000.91,0000.30,0000.06,0000.42,-000.12,0000.31,0000.30,0000.21,22.3,00.0,0616.6,30.9
2020-03-22T02:27:00Z,00000388,01000608,0001.04,0000.57,0000.45,0000.26,0000.14,0000.00,0000.01,-000.11,0000.17,22.3,00.0,0616.6,30.9
2020-03-22T02:28:00Z,00000388,01000608,0001.35,0000.68,0000.52,0000.56,0000.64,0000.33,0000.05,0000.22,-000.12,22.4,00.0,0616.6,30.9
2020-03-22T02:29:00Z,00000388,01000608,0001.19,0001.01,0000.20,0000.92,0000.24,0000.14,0000.06,0000.08,0000.12,22.4,00.0,0616.6,30.9
2020-03-22T02:30:00Z,00000388,01000608,0001.34,0000.75,0000.98,0000.50,0000.29,0000.64,0000.04,0000.16,-000.02,22.4,00.0,0616.6,30.9
2020-03-22T02:31:00Z,00000388,01000608,0001.98,0001.57,0000.46,0001.10,0000.59,0000.80,-000.01,-000.09,0000.16,22.4,00.0,0616.6,30.9
2020-03-22T02:32:00Z,00000388,01000608,0001.49,0000.88,0000.20,0000.16,0000.18,-000.10,0000.14,0000.02,-000.03,22.4,00.0,0616.6,30.9
2020-03-22T02:33:00Z,00000388,01000608,0001.45,0001.13,0000.47,0000.83,0000.25,-000.07,0000.17,0000.18,0000.03,22.4,00.0,0616.5,30.9
2020-03-22T02:34:00Z,00000388,01000608,0001.75,0001.60,0000.57,0000.75,0000.26,0000.16,-000.11,-000.12,0000.05,22.3,00.0,0616.5,30.9
2020-03-22T02:35:00Z,00000388,01000608,0001.51,0000.93,-000.05,0000.77,0000.38,-000.16,0000.10,0000.25,0000.08,22.3,00.0,0616.5,30.9
2020-03-22T02:36:00Z,00000388,01000608,0001.00,0000.71,0000.64,0000.72,-000.27,-000.05,0000.07,-000.03,-000.02,22.3,00.0,0616.5,30.8
2020-03-22T02:37:00Z,00000388,01000608,0001.52,0001.28,0000.41,-000.12,0000.28,-000.06,0000.01,-000.11,0000.07,22.2,00.0,0616.5,30.8
2020-03-22T02:38:00Z,00000388,01000608,0000.26,0001.14,-000.03,0000.67,0000.14,-000.43,0000.10,-000.07,-000.02,22.2,00.0,0616.4,30.8
2020-03-22T02:39:00Z,00000388,01000608,0001.52,0001.13,0000.39,0000.58,0000.02,-000.30,0000.16,0000.26,0000.03,22.2,00.0,0616.4,30.8
2020-03-22T02:40:00Z,00000388,01000608,0000.39,0000.57,0000.37,0000.08,0000.27,-000.01,0000.22,0000.09,0000.16,22.1,00.0,0616.4,30.8
2020-03-22T02:41:00Z,00000388,01000608,0000.59,0000.67,0000.59,0001.27,0000.17,0000.21,0000.07,0000.22,0000.06,22.2,00.0,0616.3,30.8
2020-03-22T02:42:00Z,00000388,01000608,0000.51,0001.04,0000.49,-000.02,-000.06,0000.46,0000.11,0000.09,0000.11,22.2,00.0,0616.3,30.8
2020-03-22T02:43:00Z,00000388,01000608,0001.91,0000.72,0000.60,-000.20,0000.25,0000.40,-000.18,0000.07,-000.02,22.2,00.0,0616.3,30.9
2020-03-22T02:44:00Z,00000388,01000608,0001.52,0001.18,0000.58,-000.11,-000.12,0000.07,0000.11,0000.01,0000.17,22.2,00.0,0616.3,30.9
2020-03-22T02:45:00Z,00000388,01000608,0001.14,0001.12,0001.00,0001.30,0000.09,0000.64,-000.04,-000.06,-000.11,22.2,00.0,0616.3,30.9
2020-03-22T02:46:00Z,00000388,01000608,0000.02,0000.35,0000.86,0000.24,0000.41,0000.09,0000.10,0000.10,0000.10,22.2,00.0,0616.3,30.9
2020-03-22T02:47:00Z,00000388,01000608,0001.85,0000.28,0000.42,0000.48,-000.02,0000.33,-000.01,0000.07,-000.06,22.3,00.0,0616.3,30.9
2020-03-22T02:48:00Z,00000388,01000608,0002.90,0001.09,0000.18,0000.45,-000.10,-000.19,0000.07,-000.05,-000.08,22.3,00.0,0616.3,30.9
2020-03-22T02:49:00Z,00000388,01000608,0000.82,0000.92,0000.29,0000.50,0000.22,-000.17,-000.05,-000.11,0000.09,22.3,00.0,0616.3,30.9
2020-03-22T02:50:00Z,00000388,01000608,0001.00,0000.65,0000.51,0000.80,0000.54,0000.10,0000.09,0000.17,0000.05,22.3,00.0,0616.3,30.9
2020-03-22T02:51:00Z,00000388,01000608,0000.64,0000.74,-000.07,0000.49,0000.17,0000.09,0000.17,0000.13,0000.06,22.2,00.0,0616.2,30.9
2020-03-22T02:52:00Z,00000388,01000608,0001.84,0001.19,0001.02,0000.97,0000.32,0000.42,0000.06,-000.12,-000.07,22.2,00.0,0616.2,30.9
2020-03-22T02:53:00Z,00000388,01000608,0001.36,0000.91,0000.57,-000.09,0000.02,-000.08,0000.18,0000.12,0000.18,22.1,00.0,0616.2,30.8
2020-03-22T02:54:00Z,00000388,01000608,0000.84,0001.40,0000.11,-000.05,-000.04,0000.42,0000.08,0000.03,-000.02,22.1,00.0,0616.2,30.8
2020-03-22T02:55:00Z,00000388,01000608,0001.71,0001.33,0000.43,0000.49,0000.51,0000.22,-000.09,0000.30,0000.13,22.1,00.0,0616.2,30.8
2020-03-22T02:56:00Z,00000388,01000608,0001.52,0000.61,0000.62,0000.24,0000.08,0000.35,0000.13,0000.17,0000.07,22.1,00.0,0616.2,30.9
2020-03-22T02:57:00Z,00000388,41000608,,,,,,,,,,22.2,00.0,0616.2,30.9
2020-03-22T02:58:00Z,00000388,61000608,,,,,,,,,,22.4,00.0,0615.3,30.9
2020-03-22T02:59:00Z,00000388,21000608,,,,,,,,,,22.5,00.0,0615.3,30.9
2020-03-22T03:00:00Z,00000388,21000608,,,,,,,,,,22.5,00.0,0615.4,31.0
2020-03-22T03:01:00Z,00000388,21000608,,,,,,,,,,22.5,00.0,0615.4,31.0
2020-03-22T03:02:00Z,00000388,21000608,,,,,,,,,,22.6,00.0,0615.4,31.0
2020-03-22T03:03:00Z,00000388,61000608,,,,,,,,,,22.6,00.0,0615.4,31.0
2020-03-22T03:04:00Z,00000388,41000608,0001.60,0000.86,0000.70,0000.69,0000.14,0000.23,0000.03,-000.14,-000.12,22.5,00.0,0616.3,30.9
2020-03-22T03:05:00Z,00000388,01000608,0001.77,0001.43,0000.32,0000.03,-000.32,-000.03,-000.05,0000.17,0000.17,22.4,00.0,0616.4,30.9
2020-03-22T03:06:00Z,00000388,01000608,0001.37,0000.89,0000.67,-000.35,0000.48,-000.08,0000.16,0000.11,-000.12,22.3,00.0,0616.3,30.9
2020-03-22T03:07:00Z,00000388,01000608,0001.60,0001.09,0000.83,0000.87,-000.02,0000.47,-000.04,-000.18,-000.08,22.3,00.0,0616.3,30.9
2020-03-22T03:08:00Z,00000388,01000608,0001.95,0001.68,0000.57,-000.29,-000.04,0000.28,0000.13,0000.08,0000.14,22.2,00.0,0616.3,30.8
2020-03-22T03:09:00Z,00000388,01000608,0001.04,0001.33,0000.46,0000.04,-000.07,-000.46,0000.20,0000.07,0000.14,22.2,00.0,0616.3,30.8
2020-03-22T03:10:00Z,00000388,01000608,0000.95,0000.76,-000.35,0000.19,0000.14,0000.10,0000.02,0000.06,0000.00,22.2,00.0,0616.3,30.8